TimeCST,TemperatureF,Dew PointF,Humidity,Sea Level PressureIn,VisibilityMPH,Wind Direction,Wind SpeedMPH,Gust SpeedMPH,PrecipitationIn,Events,Conditions,WindDirDegrees,DateUTC
12:15 AM,11.3,7.5,85,29.89,2.0,SE,3.5,-,N/A,Snow,Light Snow,140,2013-12-09 06:15:00
12:35 AM,11.3,7.5,85,29.88,3.0,Calm,Calm,-,N/A,Snow,Light Snow,0,2013-12-09 06:35:00
12:55 AM,11.3,7.5,85,29.87,3.0,Calm,Calm,-,N/A,Snow,Light Snow,0,2013-12-09 06:55:00
1:15 AM,11.3,7.7,85,29.86,2.5,Calm,Calm,-,N/A,Snow,Light Snow,0,2013-12-09 07:15:00
1:35 AM,11.3,7.7,85,29.85,2.0,Calm,Calm,-,N/A,Snow,Light Snow,0,2013-12-09 07:35:00
1:55 AM,11.3,7.7,85,29.84,2.5,Calm,Calm,-,N/A,Snow,Light Snow,0,2013-12-09 07:55:00
2:15 AM,11.3,7.7,85,29.83,2.5,Calm,Calm,-,N/A,Snow,Light Snow,0,2013-12-09 08:15:00
2:35 AM,11.3,7.7,85,29.84,1.5,West,3.5,-,N/A,Snow,Light Snow,280,2013-12-09 08:35:00
2:55 AM,11.3,7.7,85,29.83,2.0,West,3.5,-,N/A,Snow,Light Snow,280,2013-12-09 08:55:00
3:15 AM,11.3,7.7,85,29.83,1.5,Calm,Calm,-,N/A,Snow,Light Snow,0,2013-12-09 09:15:00
3:35 AM,11.3,7.7,85,29.82,2.0,Calm,Calm,-,N/A,Snow,Light Snow,0,2013-12-09 09:35:00
3:55 AM,11.3,7.7,85,29.81,3.0,West,3.5,-,N/A,Snow,Light Snow,270,2013-12-09 09:55:00
4:15 AM,11.3,7.5,85,29.81,2.5,West,6.9,-,N/A,Snow,Light Snow,280,2013-12-09 10:15:00
4:35 AM,11.3,7.2,83,29.80,3.0,West,4.6,-,N/A,Snow,Light Snow,280,2013-12-09 10:35:00
4:55 AM,11.3,7.2,83,29.79,3.0,West,5.8,-,N/A,Snow,Light Snow,280,2013-12-09 10:55:00
5:15 AM,11.3,6.8,82,29.79,3.0,WNW,5.8,-,N/A,Snow,Light Snow,290,2013-12-09 11:15:00
5:35 AM,11.3,6.8,82,29.79,3.0,West,4.6,-,N/A,Snow,Light Snow,280,2013-12-09 11:35:00
5:55 AM,11.3,6.8,82,29.79,4.0,West,6.9,-,N/A,Snow,Light Snow,280,2013-12-09 11:55:00
6:15 AM,11.3,6.6,81,29.79,4.0,West,5.8,-,N/A,Snow,Light Snow,280,2013-12-09 12:15:00
6:35 AM,9.1,4.3,81,29.79,3.0,West,5.8,-,N/A,Snow,Light Snow,280,2013-12-09 12:35:00
6:55 AM,9.0,3.9,80,29.78,5.0,West,3.5,-,N/A,Snow,Light Snow,270,2013-12-09 12:55:00
7:15 AM,9.0,4.1,81,29.79,7.0,West,4.6,-,N/A,Snow,Light Snow,260,2013-12-09 13:15:00
7:35 AM,9.0,4.3,81,29.79,3.0,WSW,3.5,-,N/A,Snow,Light Snow,250,2013-12-09 13:35:00
7:55 AM,6.4,2.3,83,29.78,10.0,WSW,4.6,-,N/A,Snow,Light Snow,250,2013-12-09 13:55:00
8:15 AM,6.4,2.3,83,29.78,7.0,West,5.8,-,N/A,Snow,Light Snow,260,2013-12-09 14:15:00
8:35 AM,6.4,2.1,82,29.79,7.0,WSW,11.5,-,N/A,Snow,Light Snow,250,2013-12-09 14:35:00
8:55 AM,6.6,2.1,82,29.79,4.0,West,10.4,-,N/A,Snow,Light Snow,260,2013-12-09 14:55:00
9:15 AM,7.5,2.5,80,29.79,3.0,West,11.5,-,N/A,Snow,Light Snow,260,2013-12-09 15:15:00
9:34 AM,8.6,1.4,73,29.79,4.0,West,11.5,21.9,N/A,Snow,Light Snow,260,2013-12-09 15:34:00
9:35 AM,7.7,1.9,77,29.79,4.0,West,11.5,21.9,N/A,Snow,Light Snow,260,2013-12-09 15:35:00
9:55 AM,9.0,3.2,77,29.79,5.0,West,11.5,16.1,N/A,Snow,Light Snow,260,2013-12-09 15:55:00
10:15 AM,9.0,2.3,74,29.78,3.0,West,13.8,19.6,N/A,Snow,Light Snow,270,2013-12-09 16:15:00
10:35 AM,9.0,2.8,76,29.77,3.0,West,9.2,-,N/A,,Haze,260,2013-12-09 16:35:00
10:55 AM,9.0,2.8,76,29.77,2.5,West,11.5,17.3,N/A,Snow,Light Snow,260,2013-12-09 16:55:00
11:15 AM,9.0,2.7,76,29.76,2.0,WSW,16.1,19.6,N/A,,Haze,250,2013-12-09 17:15:00
11:35 AM,9.0,2.1,74,29.76,2.5,WSW,16.1,21.9,N/A,,Haze,250,2013-12-09 17:35:00
11:55 AM,8.2,1.4,74,29.76,3.0,WSW,12.7,19.6,N/A,,Haze,240,2013-12-09 17:55:00
12:15 PM,7.5,1.0,75,29.75,2.0,West,11.5,-,N/A,,Haze,260,2013-12-09 18:15:00
12:35 PM,6.4,-0.6,73,29.74,4.0,West,15.0,19.6,N/A,,Haze,260,2013-12-09 18:35:00
12:55 PM,7.0,-0.8,71,29.74,2.5,WSW,12.7,20.7,N/A,,Haze,240,2013-12-09 18:55:00
1:15 PM,5.4,-2.4,70,29.76,4.0,West,16.1,27.6,N/A,,Haze,260,2013-12-09 19:15:00
1:35 PM,4.1,-3.1,72,29.77,2.5,West,18.4,24.2,N/A,,Haze,270,2013-12-09 19:35:00
1:55 PM,3.9,-3.6,71,29.78,2.0,West,16.1,27.6,N/A,,Haze,270,2013-12-09 19:55:00
2:15 PM,2.3,-5.8,69,29.79,4.0,West,16.1,26.5,N/A,,Haze,270,2013-12-09 20:15:00
2:35 PM,1.4,-6.7,69,29.80,4.0,West,19.6,26.5,N/A,,Haze,260,2013-12-09 20:35:00
2:55 PM,1.4,-6.7,69,29.81,4.0,West,13.8,24.2,N/A,,Haze,270,2013-12-09 20:55:00
3:15 PM,1.4,-6.7,69,29.83,4.0,West,16.1,27.6,N/A,,Haze,260,2013-12-09 21:15:00
3:35 PM,-0.4,-8.0,70,29.84,5.0,WSW,15.0,23.0,N/A,,Haze,250,2013-12-09 21:35:00
3:55 PM,-1.3,-8.3,72,29.85,4.0,West,13.8,21.9,N/A,,Haze,280,2013-12-09 21:55:00
4:15 PM,-1.3,-8.1,73,29.87,5.0,West,9.2,18.4,N/A,,Haze,270,2013-12-09 22:15:00
4:35 PM,-1.7,-8.3,73,29.88,7.0,West,11.5,18.4,N/A,,Scattered Clouds,260,2013-12-09 22:35:00
4:55 PM,-2.6,-9.4,73,29.89,10.0,WSW,8.1,-,N/A,,Scattered Clouds,250,2013-12-09 22:55:00
5:15 PM,-3.6,-10.3,73,29.90,10.0,WSW,13.8,19.6,N/A,,Clear,250,2013-12-09 23:15:00
5:35 PM,-3.6,-9.9,74,29.90,10.0,West,8.1,16.1,N/A,,Clear,260,2013-12-09 23:35:00
5:55 PM,-3.6,-9.6,76,29.91,10.0,West,12.7,-,N/A,,Clear,260,2013-12-09 23:55:00
6:15 PM,-3.6,-9.6,76,29.91,10.0,WSW,8.1,-,N/A,,Clear,250,2013-12-10 00:15:00
6:35 PM,-3.6,-9.4,76,29.92,10.0,West,8.1,17.3,N/A,,Clear,260,2013-12-10 00:35:00
6:55 PM,-3.6,-9.4,76,29.93,10.0,WSW,10.4,-,N/A,,Clear,250,2013-12-10 00:55:00
7:15 PM,-3.6,-9.4,76,29.92,10.0,WSW,8.1,-,N/A,,Clear,250,2013-12-10 01:15:00
7:35 PM,-3.6,-9.4,76,29.92,10.0,West,6.9,-,N/A,,Clear,260,2013-12-10 01:35:00
7:55 PM,-3.6,-9.0,78,29.92,10.0,West,6.9,-,N/A,,Clear,260,2013-12-10 01:55:00
8:15 PM,-3.6,-8.7,79,29.91,10.0,WSW,4.6,-,N/A,,Clear,250,2013-12-10 02:15:00
8:35 PM,-3.6,-8.7,79,29.91,10.0,WSW,5.8,-,N/A,,Clear,240,2013-12-10 02:35:00
8:55 PM,-5.8,-11.0,78,29.91,10.0,WSW,6.9,-,N/A,,Clear,250,2013-12-10 02:55:00
9:15 PM,-6.2,-11.4,78,29.90,10.0,WSW,6.9,-,N/A,,Clear,250,2013-12-10 03:15:00
9:35 PM,-6.2,-11.4,78,29.90,10.0,WSW,4.6,-,N/A,,Clear,240,2013-12-10 03:35:00
9:55 PM,-6.2,-11.4,78,29.91,10.0,WSW,5.8,-,N/A,,Clear,240,2013-12-10 03:55:00
10:15 PM,-6.2,-11.2,79,29.91,10.0,SW,5.8,-,N/A,,Clear,230,2013-12-10 04:15:00
10:35 PM,-6.9,-11.9,79,29.90,10.0,SW,3.5,-,N/A,,Clear,230,2013-12-10 04:35:00
10:55 PM,-8.5,-13.7,78,29.89,10.0,Calm,Calm,-,N/A,,Clear,0,2013-12-10 04:55:00
11:15 PM,-8.7,-13.9,78,29.88,10.0,Calm,Calm,-,N/A,Snow,Light Snow,0,2013-12-10 05:15:00
11:35 PM,-8.7,-13.9,78,29.88,10.0,South,3.5,-,N/A,,Clear,170,2013-12-10 05:35:00
11:55 PM,-9.8,-14.4,80,29.88,10.0,SSW,5.8,-,N/A,,Clear,200,2013-12-10 05:55:00